Regional Weather Roundup
Issued by NWS Albany, NY

Home | Current Version | Previous Version | Text Only | Print | Product List | Glossary On
Versions: 1 2 3 4 5 6 7 8 9 10 11 12 13 14 15 16 17 18 19 20 21 22 23 24 25 26 27 28 29 30 31 32 33 34 35 36 37 38 39 40 41 42 43 44 45 46 47 48 49 50
000
ASUS41 KALY 290910
RWRALY

NEW YORK STATE HOURLY WEATHER ROUNDUP
NATIONAL WEATHER SERVICE ALBANY NY
500 AM EDT SUN MAY 29 2016

NOTE: "FAIR" INDICATES FEW OR NO CLOUDS BELOW 12,000 FEET WITH NO
SIGNIFICANT WEATHER AND/OR NO OBSTRUCTIONS TO VISIBILITY.

NYZ032-033-038>043-046>054-057>066-NYZ062>081-082-084-291000-
EAST


CITY           SKY/WX    TMP DP  RH WIND       PRES   REMARKS
ALBANY         PTCLDY    70  65  84 CALM      30.09S
GLENS FALLS    FOG       62  60  93 CALM      30.09S VSB 3/4
POUGHKEEPSIE   CLEAR     69  65  86 CALM      30.10R
NEWBURGH       PTCLDY    70  66  88 SW6       30.12S
MONTGOMERY     CLEAR     68  67  96 S3        30.11S FOG
WHITE PLAINS   CLOUDY    69  61  75 CALM      30.12S
ISLIP          CLEAR     65  55  70 SW7       30.13S
NEW YORK CITY  CLOUDY    74  58  57 S5        30.11S
CENTRAL PARK   CLEAR     73  54  51 VRB6      30.15S
$$

NYZ005>009-017-018-044>046-055-056-291000-
CENTRAL


CITY           SKY/WX    TMP DP  RH WIND       PRES   REMARKS
FULTON         CLOUDY    71  67  87 CALM      30.06S
SYRACUSE       CLOUDY    70  65  84 CALM      30.06R
ROME           CLOUDY    67  63  87 SE6       30.08F
ELMIRA         PTCLDY    65  62  90 CALM      30.10S FOG
BINGHAMTON     PTCLDY    70  65  84 S5        30.14S
MONTICELLO     CLEAR     64  63  94 CALM      30.17S
$$

NYZ026>034-041>043-087-291000-
NORTH


CITY           SKY/WX    TMP DP  RH WIND       PRES   REMARKS
WATERTOWN      CLOUDY    66  63  90 CALM      30.05S
FORT DRUM      NOT AVBL
MASSENA        PTCLDY    65  55  70 NE7       30.08S
SARANAC LAKE   FOG       51  49  92 CALM      30.13S VSB 1/2
PLATTSBURGH    CLEAR     63  58  83 N5        30.08R
$$

NYZ001>004-010>016-019>021-085-291000-
WEST


CITY           SKY/WX    TMP DP  RH WIND       PRES   REMARKS
NIAGARA FALLS  PTCLDY    70  64  81 SW8       30.06R
BUFFALO        PTCLDY    70  64  81 S8        30.07R
DUNKIRK        PTCLDY    65  63  93 W5        30.08S
JAMESTOWN      PTCLDY    66  63  88 S6        30.13S
WELLSVILLE     MOCLDY    65  63  93 CALM      30.16S FOG
ROCHESTER      MOCLDY    71  65  81 SW5       30.07R
PENN YAN       CLOUDY    68  64  87 SW6       30.09S
$$

             KEY
       WCI = WIND CHILL INDEX
       VSB = VISIBILITY
       HX  = HEAT INDEX
$$



USA.gov is the U.S. government's official web portal to all federal, state and local government web resources and services.